STARLINK-35959, 66827

Orbit data source: Space-Track

STARLINK-35959, 66827 is a payload satellite owned by SpaceX/Seattle (US) in LEO that was launched on Tue, 02 Dec 2025 UTC via an FALCON 9 launch vehicle from the Air Force Western Test Range (AFWTR). Payload-class satellites include a variety of spacecraft equipped with specific instruments for various scientific and technological missions. These include communications satellites like Starlink; space stations such as the ISS; scientific satellites like the Hubble; Earth observation satellites from companies like Planet Labs, Umbra, and HawkEye 360; GPS; miniature CubeSats for education and research; and military/defense satellites.

Loading next visibility...
Identifier
66827, 2025-280G
Orbit
LEO
Country
Flag of USUS
Related business
Manufacturer
SpaceX/Seattle
Mission
Operational Commercial Communications
Bus & Motor
STARLINK V2MO, Unknown motor
Mass
575 kg wet, ~530 kg dry
Launch date (UTC)
2025-12-02 (7 months ago)
Launch vehicle
FALCON 9
Launch site
Air Force Western Test Range (AFWTR)
Object type
Payload
Rocket body
Debris
Shape & HBR
Box + 2 Pan, 17.7 m
Radar Cross Section
36.964 m², Large (>1 m²)

Expand to show TLE details & history
Last TLE update: 21 hours ago

TLE from 21 hours ago
0 STARLINK-35959
1 66827U 25280G   26170.95731911  .00003687  00000-0  31656-3 0  9996
2 66827  70.0012  76.6454 0002896 269.7119  90.3708 14.98338968 31395
Epoch: 2026-06-19T22:58Z
TLE epoch observation values (Epoch: 2026-06-19T22:58:32.371Z)
Latitude
-0.00002°
Longitude
-176.16833°
Altitude
574.466 km
Speed
7.574 km/s
True Right ascension
05h 06m 34s
True Declination
0° 00' 00"
Sunlit
Object was in daylight at epoch
Visualization orbit readout
Latitude
Unknown
Longitude
Unknown
Altitude
Unknown
Speed
Unknown
Apparent Right ascension
Unknown
Apparent Declination
Unknown
Sunlit
N/A
Visualization observer readout
Local Sidereal Time
07:16:02
Azimuth
Unknown
Elevation
Unknown
Doppler factor
Unknown
Orbital elements
Apogee altitude
571.988 km
Perigee altitude
567.964 km
Semi-major axis
6,948.113 km
Eccentricity
0.00029
Inclination
70.0012°
RAAN
76.6454°
Arg. of periapsis
269.7119°
True anomaly
90.40398°
Mean anomaly
90.3708°
Eccentric anomaly
90.38739°
Mean motion
3.74751 °/min
Orbital period
96.06 mins
BSTAR
0.00031656
Loading maneuver chart data...
Computing Atmospheric mass density...
Loading historical data...
Loading historical data...
Loading historical data...
Loading historical data...
Loading historical data...
Loading historical data...
Loading historical data...

Documentation

Showing up to 5 results
|